This demonstration page uses our WeatherBlox Daily Observations layout. Learn more.

Left ArrowRight Arrow

39.29038, -76.61219

Hourly Observations for February 10, 2019

Temp ( °F °C ) Dew Point ( °F °C ) Humidity (%) Winds ( mph kmh ) Pressure ( in mb ) Visibility ( mi km ) Precip ( " mm )
12:54 am 00:54 undefined 29 -1.7 6 -14.4 38 38 undefined N/A 30.75 1041 N/A 0.00 0.00
1:54 am 01:54 undefined 28 -2.2 7 -13.9 41 41 undefined N/A 30.67 1039 N/A 0.00 0.00
2:54 am 02:54 undefined 28 -2.2 8 -13.3 43 43 undefined N/A 30.71 1040 N/A 0.00 0.00
3:54 am 03:54 undefined 28 -2.2 7 -13.9 41 41 undefined N/A 30.77 1042 N/A 0.00 0.00
4:54 am 04:54 undefined 28 -2.2 8 -13.3 43 43 undefined N/A 30.71 1040 N/A 0.00 0.00
5:54 am 05:54 undefined 27 -2.8 8 -13.3 45 45 undefined N/A 30.79 1043 N/A 0.00 0.00
6:54 am 06:54 undefined 27 -2.8 7 -13.9 43 43 undefined N/A 30.68 1039 N/A 0.00 0.00
7:54 am 07:54 undefined 27 -2.8 12 -11.1 53 53 undefined N/A 30.70 1040 N/A 0.00 0.00
8:54 am 08:54 undefined 29 -1.7 11 -11.7 47 47 undefined N/A 30.73 1041 N/A 0.00 0.00
9:54 am 09:54 undefined 32 0 8 -13.3 36 36 undefined N/A 30.71 1040 N/A 0.00 0.00
10:54 am 10:54 undefined 33 0.6 11 -11.7 40 40 undefined N/A 30.68 1039 N/A 0.00 0.00
11:54 am 11:54 undefined 34 1.1 12 -11.1 40 40 undefined N/A 30.64 1038 N/A 0.00 0.00
12:54 pm 12:54 undefined 34 1.1 15 -9.4 46 46 undefined N/A 30.61 1037 N/A 0.00 0.00
1:54 pm 13:54 undefined 36 2.2 18 -7.8 48 48 undefined N/A 30.56 1035 N/A 0.00 0.00
2:54 pm 14:54 undefined 35 1.7 17 -8.3 48 48 undefined N/A 30.54 1034 N/A 0.00 0.00
3:54 pm 15:54 undefined 34 1.1 17 -8.3 50 50 undefined N/A 30.51 1033 N/A 0.00 0.00
4:54 pm 16:54 undefined 34 1.1 17 -8.3 50 50 undefined N/A 30.50 1033 N/A 0.00 0.00
5:54 pm 17:54 undefined 34 1.1 17 -8.3 50 50 undefined N/A 30.48 1032 N/A 0.00 0.00
6:54 pm 18:54 undefined 34 1.1 17 -8.3 50 50 undefined N/A 30.47 1032 N/A 0.00 0.00
7:54 pm 19:54 undefined 35 1.7 18 -7.8 50 50 undefined N/A 30.45 1031 N/A 0.00 0.00
8:54 pm 20:54 undefined 35 1.7 19 -7.2 52 52 undefined N/A 30.43 1030 N/A 0.00 0.00
9:54 pm 21:54 undefined 33 0.6 23 -5 66 66 undefined N/A 30.43 1030 N/A 0.00 0.00
10:54 pm 22:54 undefined 31 -0.6 27 -2.8 85 85 undefined N/A 30.39 1029 N/A 0.03 0.76
11:54 pm 23:54 undefined 31 -0.6 28 -2.2 89 89 undefined N/A 30.36 1028 N/A 0.04 1.02

Powered by AerisWeather